Temperature
22 23 22 22 22 22 22 22 21 21 21 21 21 21 21 20 19 19 19 19 19 18 18 17 17 17 16 16 16 16 16 16 16 16 15 15 15 15 15 15 15 15 15 15
23 22 22 22 22 22 22 21 21 21 21 21 21 21 22 21 20 20 19 19 19 19 18 17 17 17 17 17 16 16 16 16 16 16 16 15 15 15 15 15 15 15 15 15
23 22 22 22 22 21 22 22 21 21 21 21 21 21 22 21 20 19 19 19 19 19 19 18 17 17 17 17 16 16 16 16 16 16 16 15 15 15 15 15 15 15 15 15
22 22 22 22 22 22 21 22 21 21 21 22 22 22 22 22 21 20 20 19 19 19 18 18 17 17 17 17 17 16 16 16 16 16 16 16 15 15 15 15 15 15 15 15
22 22 22 22 22 22 21 21 21 21 22 22 22 22 23 22 22 21 21 20 19 19 19 18 17 17 17 17 17 17 16 16 16 16 16 16 15 15 15 15 15 15 15 15
22 22 22 22 22 21 21 21 21 22 22 22 22 22 22 23 23 23 22 21 20 19 19 18 18 17 17 17 17 17 17 16 16 16 16 16 16 15 15 15 15 15 15 15
22 22 22 22 22 21 21 21 21 21 21 22 22 22 23 24 24 23 23 22 20 20 19 18 18 17 17 17 17 17 17 17 16 16 16 16 16 15 15 15 15 15 15 15
22 22 22 22 22 22 22 22 21 21 21 22 22 22 24 24 23 22 22 21 20 20 19 18 18 17 17 17 17 17 17 17 16 16 16 16 16 15 15 15 15 15 15 15
23 22 22 22 22 23 22 22 22 22 22 22 23 23 24 24 23 23 22 21 21 20 19 18 18 18 17 17 17 17 17 17 17 16 16 16 16 16 16 15 15 15 15 15
24 22 22 22 22 22 23 23 22 22 21 21 22 23 23 24 24 23 23 22 21 20 19 19 18 18 18 17 17 17 17 17 17 16 16 16 16 16 16 15 15 15 15 15
24 23 22 22 22 22 22 22 22 22 22 22 22 23 24 24 23 23 23 22 21 20 19 19 18 18 18 17 17 17 17 17 17 16 16 16 16 16 16 16 16 15 15 15
23 23 23 23 23 22 23 23 23 22 22 22 22 23 24 24 23 23 22 22 21 20 19 19 18 18 18 18 17 17 17 17 17 17 16 16 16 16 16 16 15 15 15 15
23 23 22 22 22 22 22 22 22 23 22 22 22 23 24 24 24 23 22 21 20 20 19 19 18 18 18 18 17 17 17 17 17 17 16 16 16 16 16 16 15 15 15 15
22 23 23 22 23 23 22 22 22 22 22 22 23 23 24 24 24 23 22 21 20 20 19 19 18 18 18 18 18 18 17 17 17 17 16 16 16 16 16 16 15 15 15 15
22 23 23 23 23 23 23 22 22 22 23 23 23 23 24 25 24 23 22 21 20 20 19 19 19 19 18 18 18 18 18 17 17 17 17 16 16 16 16 16 15 15 15 15
22 22 23 22 22 22 22 23 23 22 23 23 23 23 25 24 23 22 22 21 20 20 19 19 19 19 18 18 18 18 18 17 17 17 17 16 16 16 16 15 15 15 15 15
22 22 22 22 22 22 22 23 23 23 23 23 23 24 24 24 23 23 22 21 20 20 19 19 19 19 19 19 18 18 18 17 17 17 17 16 16 16 15 15 15 15 15 15
22 21 21 22 22 21 23 24 23 23 23 24 24 24 24 23 22 22 21 21 21 20 20 19 19 19 19 19 18 18 18 17 17 17 17 16 16 16 15 15 15 15 15 15
21 21 21 21 21 22 23 23 23 23 23 24 24 24 23 22 22 22 21 20 20 20 20 20 20 19 19 19 18 18 18 17 17 17 17 16 16 16 15 15 15 15 15 14
20 21 21 20 20 21 23 23 23 23 23 24 23 23 23 23 24 24 21 20 20 20 20 20 20 19 19 19 18 18 18 17 17 17 17 16 16 16 16 15 15 15 15 14
19 20 20 20 20 22 23 22 22 22 23 23 23 23 22 23 23 22 21 20 20 20 20 20 20 19 19 19 18 18 18 17 17 17 17 16 16 16 15 15 15 15 14 14
21 20 20 20 20 21 22 22 23 23 23 22 22 22 22 21 21 20 20 20 20 20 20 20 19 19 19 19 19 18 18 18 17 17 17 16 16 16 15 15 15 15 14 14
21 21 21 21 22 22 21 21 21 21 21 21 21 21 20 20 20 20 20 20 20 20 20 20 19 19 19 19 18 18 18 18 18 17 17 17 16 16 15 15 15 15 14 14
20 19 20 21 21 20 20 20 20 20 20 20 20 20 20 20 20 19 19 19 19 19 19 19 19 19 18 18 18 18 18 18 17 17 17 16 16 16 15 15 15 14 14 14
19 19 20 20 21 20 19 19 19 19 19 19 19 19 19 19 19 19 19 19 19 19 19 19 19 19 19 18 18 18 18 18 17 17 17 16 16 16 15 15 15 14 14 14
18 18 19 20 20 21 20 19 18 18 18 19 19 19 19 19 19 19 19 19 19 19 19 18 18 18 18 18 18 18 18 18 17 17 16 16 16 15 15 15 14 14 14 14
Wind_Speed
2 3 2 3 2 0 1 2 2 1 1 2 3 4 5 7 8 8 8 9 9 10 10 9 9 8 7 7 7 7 6 5 4 3 2 2 2 2 3 3 4 3 3 3
4 1 1 3 3 3 3 3 2 1 1 2 3 5 5 8 9 9 9 9 10 10 10 10 10 9 8 8 8 7 7 6 5 3 2 2 2 2 3 3 3 3 3 3
2 1 3 5 5 4 3 3 2 2 2 3 3 4 6 7 9 8 9 9 10 11 12 12 11 10 9 8 8 7 7 7 6 5 3 2 2 2 3 3 3 3 4 4
2 2 4 4 3 3 2 2 3 3 4 2 4 2 3 6 8 10 11 11 11 12 12 12 12 11 10 10 8 8 7 7 6 5 4 3 2 2 2 2 2 3 4 4
2 4 4 4 2 3 1 2 3 4 4 4 4 4 1 5 6 10 12 13 12 13 14 13 13 12 11 10 9 8 8 7 6 5 4 3 2 2 3 3 3 3 4 4
2 2 3 2 2 2 3 3 3 4 5 3 2 3 0 3 5 6 10 13 13 14 14 14 13 12 11 10 9 8 8 7 6 6 5 4 3 3 3 3 3 3 3 3
4 4 3 3 4 5 4 3 3 3 3 1 0 3 1 0 2 4 7 11 13 14 15 15 14 13 12 11 10 9 9 8 7 7 6 5 4 4 3 3 3 3 3 3
5 5 6 5 5 4 5 4 3 2 1 0 2 2 0 1 1 3 5 8 11 14 15 15 15 14 13 12 12 11 10 9 8 7 6 5 5 3 3 3 2 3 2 2
4 3 4 4 3 4 4 4 3 3 3 2 1 1 1 1 1 2 4 8 11 13 15 15 15 14 13 13 12 12 11 10 9 8 7 6 6 5 4 3 3 3 2 2
4 4 4 4 4 3 3 2 3 3 2 2 1 1 0 0 1 1 4 7 10 12 14 15 14 14 14 13 12 12 12 11 10 9 7 6 6 5 4 3 4 3 3 3
6 5 5 6 6 6 5 4 4 2 3 2 1 1 2 2 2 1 3 5 8 11 13 13 13 14 13 13 12 12 12 11 10 10 8 8 7 6 5 4 4 4 3 3
7 5 5 6 4 4 7 6 6 4 2 3 3 1 2 1 1 1 2 4 6 9 11 12 12 12 13 13 13 13 13 12 11 10 9 8 7 7 6 5 5 4 4 3
7 5 6 5 6 6 6 7 7 5 4 4 4 1 1 1 0 1 2 3 6 8 10 10 11 12 13 13 13 13 13 12 11 10 9 9 8 8 7 6 5 5 4 4
5 7 7 6 2 4 7 8 9 8 6 6 6 6 4 3 2 1 2 4 6 8 9 11 11 11 12 13 13 13 13 12 12 11 11 10 9 8 8 7 6 5 5 5
5 8 8 7 6 6 8 9 11 11 9 8 7 8 7 5 3 2 3 4 6 8 9 11 11 11 12 12 12 12 12 12 12 12 12 11 10 9 8 7 7 6 5 5
6 7 8 8 7 8 10 10 12 12 12 11 10 9 7 5 4 4 4 5 6 8 10 11 11 12 13 13 13 12 13 13 13 12 12 10 10 9 9 8 8 7 6 5
6 6 7 8 7 8 11 11 12 11 11 10 10 8 4 5 5 5 5 5 7 8 9 11 12 12 12 12 13 13 13 12 13 12 11 11 11 10 10 9 8 8 7 6
8 8 6 7 7 11 5 3 8 9 10 10 10 9 7 6 5 5 5 5 6 7 8 10 10 11 11 12 12 12 12 12 12 12 12 11 11 11 10 9 9 9 8 7
10 9 7 7 10 10 7 6 7 9 9 8 9 9 6 4 4 4 3 4 5 6 7 8 10 11 11 12 12 12 12 12 12 12 12 12 12 11 11 10 10 8 7 7
10 11 9 8 10 10 6 4 5 7 8 5 6 6 5 5 6 3 2 2 3 3 5 7 8 10 11 12 12 12 12 12 12 12 12 11 11 11 11 10 10 8 7 7
11 10 13 12 11 9 4 4 6 8 4 2 4 4 5 6 4 1 2 2 2 3 4 6 8 9 10 12 12 12 12 12 11 11 11 11 11 11 10 9 9 8 7 7
12 11 12 12 12 10 4 6 8 3 1 1 3 3 4 4 3 3 3 2 3 3 4 6 7 8 9 11 12 12 11 10 10 10 11 10 10 10 9 9 8 8 8 7
12 10 8 9 8 2 4 6 4 3 4 3 2 3 4 4 3 3 3 2 3 4 4 5 7 7 8 11 11 12 11 10 11 11 11 10 10 9 9 9 9 8 7 7
8 6 8 9 8 6 5 5 5 4 5 4 3 3 3 3 3 3 3 3 3 4 4 5 7 7 8 9 10 10 10 11 11 11 11 10 10 9 9 7 7 7 7 7
7 7 10 12 9 6 7 6 5 4 4 3 3 3 3 3 3 3 3 3 3 4 4 5 6 7 8 9 9 9 10 11 12 11 10 10 9 9 8 7 5 6 6 6
9 10 11 11 9 8 8 6 5 5 5 4 3 3 3 3 4 4 3 3 4 4 5 6 6 7 8 9 9 9 10 11 12 11 10 9 8 8 7 7 5 3 2 3
Wind_Direction
169 196 190 181 189 230 190 193 170 143 140 216 222 225 210 197 201 203 201 200 199 197 188 178 178 181 182 179 177 173 170 160 155 148 151 130 108 102 82 63 55 54 53 53
174 187 169 151 159 180 188 181 170 160 187 238 251 249 226 206 209 208 207 208 207 197 188 181 185 186 187 182 184 180 177 173 170 165 154 128 112 99 77 73 65 49 52 53
175 89 147 162 167 179 205 215 202 203 211 216 256 245 214 203 210 210 213 214 210 201 194 186 188 188 187 185 185 185 181 179 177 166 149 134 130 134 106 91 79 54 52 58
184 172 174 181 183 205 203 214 216 216 233 227 244 270 196 195 205 212 212 211 209 201 197 190 188 189 189 189 187 188 185 185 179 175 177 168 164 136 113 109 97 86 70 68
174 184 198 210 213 221 164 178 214 238 258 254 235 259 183 180 211 215 213 210 207 202 198 193 191 191 191 187 187 189 184 186 181 185 184 197 176 133 122 121 111 100 84 75
214 206 235 239 186 182 157 178 207 228 249 257 251 252 265 187 225 217 207 206 205 199 196 195 192 190 189 185 186 185 183 181 180 187 188 191 163 150 141 138 128 120 104 92
193 191 190 195 176 171 203 232 229 211 213 249 82 252 268 56 237 232 214 202 200 196 194 193 191 191 189 187 187 185 182 183 184 187 186 182 172 170 159 150 142 134 117 103
205 196 184 197 219 208 209 241 278 288 284 329 208 248 351 14 256 237 216 199 192 192 193 192 192 192 191 189 188 186 187 187 184 187 186 181 174 179 159 153 148 142 122 103
210 188 160 190 215 224 210 226 274 284 281 270 223 224 249 204 211 198 193 190 191 191 191 192 192 193 192 190 190 190 190 189 188 188 187 183 179 181 171 164 151 135 124 113
228 205 175 174 189 210 257 222 222 251 277 267 249 229 316 334 306 200 192 192 190 189 190 191 192 192 193 191 191 193 193 192 188 188 187 183 181 178 172 167 157 152 142 133
227 217 179 184 212 210 197 209 227 233 271 291 299 75 34 326 309 249 206 196 187 188 189 188 189 192 192 189 190 193 194 192 188 189 188 183 179 177 175 172 163 159 154 156
210 230 215 204 198 241 228 231 228 242 230 257 281 322 65 330 283 248 215 190 182 185 186 185 186 186 189 191 193 194 194 192 189 188 186 184 179 178 182 177 170 168 164 165
184 219 218 202 195 199 215 223 225 241 250 249 260 275 83 305 348 193 193 179 176 176 178 179 181 185 189 192 194 195 194 191 187 185 184 184 185 185 187 182 176 174 170 166
207 224 232 235 233 199 213 215 219 226 241 249 254 274 285 278 289 235 205 185 179 177 178 179 182 186 189 191 192 194 194 190 185 184 185 189 192 190 188 184 180 177 174 173
217 232 236 249 252 236 235 229 219 226 241 256 265 272 278 274 269 244 214 192 184 184 187 187 187 187 188 190 192 192 192 190 186 186 189 192 191 188 188 184 182 178 176 179
218 233 235 236 235 239 245 239 229 233 241 248 259 271 273 271 257 237 225 208 199 198 197 194 193 191 192 192 192 190 191 189 187 189 191 190 190 187 188 187 184 180 180 184
205 225 234 240 228 238 245 238 230 230 232 238 251 263 269 262 251 245 237 223 214 207 202 200 199 197 196 194 191 190 191 187 189 192 190 187 188 189 191 188 184 185 187 189
219 222 232 244 234 242 254 224 229 236 241 240 252 262 258 261 260 250 240 230 220 208 202 202 200 196 194 191 188 186 185 186 190 191 189 187 187 189 191 190 189 194 196 192
223 219 225 234 242 252 251 225 219 231 249 243 245 252 252 245 227 217 212 230 228 217 207 201 199 194 189 185 183 182 183 186 190 191 190 188 188 188 189 191 193 195 194 194
207 217 225 229 239 246 241 200 214 233 246 230 233 237 233 219 229 215 175 208 218 211 203 195 189 187 185 182 179 180 183 186 191 192 192 189 187 187 190 192 190 187 189 194
192 205 219 230 240 249 244 183 189 225 239 179 218 225 219 225 251 214 181 191 194 188 186 184 179 181 183 177 177 182 185 191 190 185 184 183 183 185 187 188 187 186 188 190
207 208 215 222 234 240 192 187 214 259 339 237 231 229 227 238 246 218 195 178 169 166 170 176 176 178 177 174 177 183 188 188 178 173 175 178 180 180 182 182 185 188 187 190
219 220 217 220 230 243 195 217 246 279 268 262 262 253 235 238 234 220 210 188 169 167 169 174 174 174 174 176 181 185 183 176 170 170 173 176 177 178 180 182 183 185 189 196
218 223 223 229 235 234 231 242 247 259 264 266 266 257 238 235 230 218 205 187 174 167 170 172 172 175 177 179 184 185 176 172 171 172 173 173 175 177 179 181 186 189 192 198
220 211 222 230 234 232 235 242 249 262 264 268 272 254 245 240 237 227 216 199 188 173 174 178 180 182 182 178 180 180 176 173 174 174 172 173 173 171 174 175 181 191 196 201
222 224 226 234 231 236 241 244 248 249 258 265 266 273 269 246 236 233 224 214 202 187 180 181 183 185 183 179 178 177 176 176 175 173 173 172 171 171 172 170 162 102 149 133
Height
1527 1526 1526 1526 1526 1527 1528 1530 1533 1533 1533 1535 1534 1534 1534 1538 1540 1541 1542 1544 1546 1548 1550 1552 1554 1556 1558 1560 1561 1563 1564 1565 1565 1566 1566 1566 1566 1566 1566 1565 1565 1565 1565 1564
1526 1527 1526 1527 1528 1529 1530 1532 1533 1533 1533 1534 1533 1532 1531 1534 1536 1538 1540 1541 1543 1546 1548 1551 1553 1555 1557 1559 1561 1562 1564 1565 1565 1566 1566 1567 1567 1567 1566 1566 1566 1565 1565 1565
1525 1527 1527 1528 1529 1530 1530 1531 1532 1533 1533 1532 1533 1530 1528 1530 1534 1536 1538 1539 1541 1543 1546 1549 1551 1554 1556 1558 1560 1561 1563 1564 1565 1566 1566 1567 1567 1567 1567 1567 1566 1566 1566 1565
1525 1527 1527 1527 1528 1528 1531 1529 1530 1532 1532 1532 1531 1533 1524 1525 1529 1532 1534 1536 1539 1541 1544 1547 1550 1552 1554 1557 1559 1561 1562 1564 1565 1566 1567 1567 1568 1568 1568 1567 1567 1567 1566 1566
1525 1526 1527 1527 1527 1528 1529 1529 1529 1530 1529 1529 1527 1529 1523 1522 1525 1526 1529 1532 1535 1538 1541 1544 1547 1550 1553 1555 1557 1559 1561 1563 1564 1565 1566 1567 1568 1568 1568 1568 1568 1568 1567 1567
1525 1526 1526 1526 1527 1529 1529 1530 1530 1529 1528 1533 1526 1527 1525 1518 1519 1520 1523 1527 1531 1535 1538 1542 1545 1548 1551 1554 1556 1558 1560 1562 1563 1565 1566 1567 1567 1568 1568 1568 1568 1568 1568 1568
1525 1525 1526 1527 1527 1529 1529 1532 1536 1535 1535 1531 1523 1526 1522 1513 1515 1517 1520 1523 1527 1531 1535 1539 1542 1545 1549 1551 1554 1556 1559 1561 1563 1564 1565 1566 1567 1568 1568 1568 1568 1569 1569 1569
1526 1527 1523 1524 1524 1525 1526 1527 1536 1540 1536 1528 1524 1524 1515 1513 1515 1517 1518 1521 1524 1528 1532 1536 1539 1543 1546 1549 1552 1555 1557 1560 1562 1563 1565 1566 1567 1568 1568 1568 1569 1569 1569 1569
1520 1524 1522 1523 1523 1522 1524 1524 1523 1528 1527 1529 1522 1517 1512 1511 1513 1515 1517 1519 1522 1525 1529 1533 1536 1540 1544 1547 1550 1553 1556 1558 1560 1562 1564 1565 1566 1567 1568 1568 1569 1569 1569 1569
1513 1521 1520 1523 1523 1524 1521 1521 1525 1529 1535 1534 1526 1520 1516 1511 1511 1512 1514 1517 1519 1523 1527 1530 1534 1537 1541 1545 1548 1551 1554 1557 1559 1561 1563 1564 1565 1566 1567 1568 1568 1569 1569 1569
1512 1517 1521 1521 1521 1520 1523 1523 1522 1524 1526 1531 1532 1523 1509 1510 1510 1511 1513 1515 1518 1521 1524 1527 1531 1535 1539 1542 1546 1549 1552 1555 1557 1559 1561 1563 1564 1565 1567 1567 1568 1568 1569 1569
1512 1512 1516 1516 1516 1517 1517 1517 1519 1525 1526 1524 1526 1522 1507 1509 1510 1511 1512 1514 1516 1519 1522 1525 1529 1532 1536 1539 1543 1546 1550 1552 1555 1557 1559 1561 1563 1564 1566 1567 1567 1568 1569 1569
1512 1513 1519 1521 1521 1519 1517 1517 1517 1517 1519 1522 1525 1521 1506 1508 1509 1511 1512 1514 1516 1518 1521 1524 1527 1530 1533 1536 1540 1544 1547 1550 1552 1555 1557 1559 1561 1563 1565 1566 1567 1568 1568 1569
1511 1509 1513 1519 1513 1511 1515 1516 1516 1517 1519 1519 1517 1513 1506 1506 1507 1510 1511 1513 1515 1517 1519 1522 1524 1527 1530 1534 1537 1540 1544 1547 1549 1552 1554 1557 1559 1561 1563 1565 1566 1567 1568 1568
1509 1508 1507 1506 1507 1509 1510 1511 1513 1513 1511 1513 1510 1509 1504 1503 1506 1508 1510 1512 1513 1515 1517 1519 1522 1525 1528 1531 1534 1537 1541 1544 1546 1549 1552 1554 1557 1559 1561 1563 1564 1565 1566 1567
1507 1506 1506 1508 1507 1507 1509 1507 1508 1509 1508 1507 1507 1505 1501 1503 1505 1507 1508 1510 1511 1512 1514 1517 1519 1522 1525 1528 1531 1534 1537 1540 1543 1546 1549 1552 1554 1557 1558 1560 1562 1564 1565 1566
1505 1506 1509 1508 1506 1508 1509 1501 1502 1503 1502 1503 1504 1501 1500 1502 1503 1504 1506 1507 1508 1510 1511 1514 1516 1518 1521 1524 1527 1531 1534 1537 1540 1543 1546 1549 1551 1554 1556 1558 1560 1561 1563 1564
1503 1505 1506 1507 1509 1517 1499 1494 1497 1499 1498 1498 1498 1498 1500 1501 1502 1503 1504 1504 1506 1507 1508 1510 1513 1515 1518 1522 1525 1528 1531 1534 1537 1540 1543 1545 1548 1551 1553 1555 1557 1559 1560 1562
1502 1504 1506 1507 1508 1503 1496 1493 1495 1497 1496 1494 1496 1496 1498 1500 1500 1500 1501 1502 1503 1505 1506 1507 1510 1513 1516 1519 1522 1525 1528 1531 1534 1537 1539 1542 1545 1547 1550 1552 1554 1556 1558 1559
1501 1501 1504 1506 1509 1508 1494 1490 1493 1495 1495 1492 1493 1494 1496 1497 1496 1497 1499 1500 1501 1502 1503 1505 1507 1510 1513 1516 1519 1522 1525 1528 1531 1533 1536 1539 1541 1544 1546 1548 1551 1553 1555 1556
1498 1500 1501 1502 1503 1494 1487 1490 1493 1499 1492 1490 1491 1493 1494 1495 1494 1497 1497 1498 1499 1500 1501 1503 1505 1507 1510 1513 1516 1519 1522 1525 1528 1531 1533 1536 1538 1541 1543 1546 1548 1550 1552 1554
1488 1493 1495 1497 1501 1496 1487 1489 1489 1488 1488 1489 1490 1492 1493 1494 1494 1495 1496 1497 1497 1498 1500 1501 1503 1505 1507 1510 1513 1516 1519 1522 1525 1528 1530 1533 1536 1538 1541 1543 1545 1548 1549 1551
1482 1482 1483 1486 1487 1485 1486 1487 1488 1488 1488 1489 1490 1491 1492 1492 1493 1493 1494 1495 1496 1497 1498 1499 1501 1503 1505 1507 1510 1513 1516 1519 1522 1525 1528 1530 1533 1536 1538 1540 1542 1544 1546 1548
1480 1482 1482 1482 1481 1484 1485 1485 1486 1487 1488 1488 1489 1489 1490 1490 1490 1491 1492 1493 1494 1495 1496 1498 1499 1501 1503 1505 1508 1511 1514 1517 1519 1522 1525 1528 1530 1533 1535 1537 1539 1541 1543 1544
1478 1481 1479 1479 1480 1482 1483 1483 1484 1485 1486 1486 1487 1487 1487 1488 1488 1489 1490 1491 1492 1493 1494 1496 1497 1499 1501 1503 1505 1508 1511 1514 1517 1520 1522 1525 1527 1530 1532 1534 1535 1537 1539 1540
1476 1477 1477 1475 1476 1478 1479 1481 1482 1483 1483 1484 1484 1484 1485 1485 1486 1487 1488 1489 1490 1491 1492 1493 1495 1496 1498 1501 1503 1506 1508 1511 1514 1517 1519 1521 1524 1526 1528 1530 1532 1534 1535 1537